Weather History for KINJ - April, 2013

Change the Weather History Date:

Tuesday, April 2, 2013

  Actual Average (KACT) Record (KACT)
Temperature  
Mean Temperature 62 °F 63 °F  
Max Temperature 69 °F 74 °F 93 °F (1918)
Min Temperature 55 °F 51 °F 34 °F (1975)
Degree Days  
Heating Degree Days 3 5  
Month to date heating degree days 10  
Since 1 July heating degree days 2068  
Cooling Degree Days 0 2  
Month to date cooling degree days 4  
Year to date cooling degree days 47  
Growing Degree Days 12 (Base 50)    
Moisture  
Dew Point 59 °F    
Average Humidity 81    
Maximum Humidity 94    
Minimum Humidity 60    
Precipitation  
Precipitation 0.50 in 0.08 in 1.65 in (1916)
Month to date precipitation 0.15  
Year to date precipitation 8.05  
Snow  
Snow 0.00 in 0.00 in T in (1992)
Month to date snowfall 0.0  
Since 1 July snowfall 1.0  
Snow Depth -    
Sea Level Pressure  
Sea Level Pressure 29.97 in    
Wind  
Wind Speed 7 mph (ESE)    
Max Wind Speed 24 mph    
Max Gust Speed 31 mph    
Visibility 8 miles    
Events Rain , Thunderstorm    
T = Trace of Precipitation, MM = Missing Value Source: NWS Daily Summary

Daily Weather History Graph

Daily Weather History Graph

Search for Another Location

Airport or City:

Trip Planner

Search our weather history database for the weather conditions in past years. The results will help you decide how hot, cold, wet, or windy it might be!

Date:

Astronomy

Apr. 02, 2013 Rise Set
Actual Time 7:15 AM CDT 7:49 PM CDT
Civil Twilight 6:50 AM CDT 8:13 PM CDT
Nautical Twilight 6:21 AM CDT 8:42 PM CDT
Astronomical Twilight 5:52 AM CDT 9:12 PM CDT
Moon 1:40 AM CDT (4/2) 12:21 PM CDT (4/2)
Length of Visible Light 13h 23m
Length of Day
12h 33m
Waning Gibbous, 55% of the Moon is Illuminated
Apr 2
Waning Gibbous
Apr 2
Last Quarter
Apr 10
New
Apr 18
First Quarter
Apr 25
Full

Hourly Weather History & Observations

Time (CDT) Temp. Dew Point Humidity Pressure Visibility Wind Dir Wind Speed Gust Speed Precip Events Conditions
12:15 AM 64.4 °F 53.6 °F 68% 29.99 in 10.0 mi East 8.1 mph - N/A   Clear
12:35 AM 64.4 °F 53.6 °F 68% 30.00 in 10.0 mi East 8.1 mph - N/A   Clear
12:55 AM 64.4 °F 55.4 °F 73% 29.99 in 10.0 mi East 6.9 mph - N/A   Clear
1:15 AM 64.4 °F 55.4 °F 73% 29.99 in 10.0 mi East 8.1 mph - N/A   Clear
1:35 AM 64.4 °F 55.4 °F 73% 29.99 in 10.0 mi ENE 8.1 mph - N/A Thunderstorm Clear
1:55 AM 64.4 °F 55.4 °F 73% 29.98 in 10.0 mi East 6.9 mph - N/A   Clear
2:15 AM 64.4 °F 55.4 °F 73% 30.00 in 10.0 mi East 4.6 mph - N/A   Scattered Clouds
2:35 AM 64.4 °F 55.4 °F 73% 30.00 in 10.0 mi ESE 5.8 mph - N/A   Scattered Clouds
2:55 AM 62.6 °F 55.4 °F 77% 30.00 in 10.0 mi SSE 6.9 mph - N/A Thunderstorm Clear
3:15 AM 64.4 °F 59.0 °F 83% 29.98 in 10.0 mi SSE 12.7 mph - N/A   Clear
3:35 AM 66.2 °F 59.0 °F 78% 29.98 in 10.0 mi South 9.2 mph - N/A   Clear
3:55 AM 64.4 °F 59.0 °F 83% 29.97 in 10.0 mi South 11.5 mph - N/A   Clear
4:15 AM 64.4 °F 60.8 °F 88% 29.98 in 7.0 mi South 10.4 mph - N/A   Clear
4:35 AM 64.4 °F 59.0 °F 83% 29.98 in 7.0 mi SSW 4.6 mph - N/A   Clear
4:55 AM 64.4 °F 59.0 °F 83% 29.98 in 7.0 mi South 6.9 mph - N/A   Clear
5:15 AM 64.4 °F 59.0 °F 83% 29.98 in 7.0 mi Calm Calm - N/A   Clear
5:35 AM 62.6 °F 59.0 °F 88% 29.97 in 7.0 mi Calm Calm - N/A   Clear
5:55 AM 64.4 °F 60.8 °F 88% 29.97 in 7.0 mi SW 4.6 mph - N/A   Clear
6:15 AM 64.4 °F 59.0 °F 83% 29.97 in 7.0 mi SE 4.6 mph - N/A   Scattered Clouds
6:35 AM 62.6 °F 59.0 °F 88% 29.96 in 7.0 mi SE 6.9 mph - N/A   Clear
6:55 AM 62.6 °F 59.0 °F 88% 29.96 in 5.0 mi ESE 3.5 mph - N/A   Clear
7:15 AM 62.6 °F 59.0 °F 88% 29.95 in 5.0 mi ESE 3.5 mph - N/A   Clear
7:35 AM 60.8 °F 57.2 °F 88% 29.95 in 2.5 mi SSE 11.5 mph - N/A   Clear
7:55 AM 60.8 °F 59.0 °F 94% 29.98 in 3.0 mi SSE 3.5 mph - N/A   Clear
8:15 AM 62.6 °F 59.0 °F 88% 30.01 in 4.0 mi ENE 6.9 mph - N/A   Scattered Clouds
8:35 AM 62.6 °F 60.8 °F 94% 30.02 in 5.0 mi East 5.8 mph - N/A   Mostly Cloudy
8:55 AM 62.6 °F 60.8 °F 94% 30.02 in 5.0 mi ESE 8.1 mph - N/A   Overcast
9:35 AM 64.4 °F 60.8 °F 88% 30.02 in 5.0 mi SE 9.2 mph - N/A   Overcast
9:55 AM 64.4 °F 60.8 °F 88% 30.02 in 5.0 mi SE 5.8 mph - N/A   Overcast
10:15 AM 64.4 °F 60.8 °F 88% 30.02 in 5.0 mi SE 9.2 mph - N/A   Haze
10:35 AM 64.4 °F 60.8 °F 88% 30.01 in 5.0 mi ESE 6.9 mph - N/A   Haze
10:55 AM 66.2 °F 60.8 °F 83% 30.01 in 7.0 mi SE 8.1 mph - N/A   Overcast
11:15 AM 66.2 °F 60.8 °F 83% 30.01 in 7.0 mi ESE 9.2 mph - N/A   Overcast
11:35 AM 68.0 °F 60.8 °F 78% 30.01 in 7.0 mi SE 6.9 mph - N/A   Overcast
11:55 AM 68.0 °F 60.8 °F 78% 30.02 in 7.0 mi SE 9.2 mph - N/A   Overcast
12:15 PM 68.0 °F 60.8 °F 78% 30.02 in 10.0 mi SE 5.8 mph - N/A Thunderstorm Overcast
12:35 PM 68.0 °F 60.8 °F 78% 30.03 in 7.0 mi SSE 3.5 mph - N/A   Overcast
12:55 PM 68.0 °F 60.8 °F 78% 30.02 in 7.0 mi SSE 4.6 mph - N/A Thunderstorm Overcast
1:15 PM 66.2 °F 60.8 °F 83% 30.02 in 3.0 mi Calm Calm - 0.04 in Rain , Thunderstorm Heavy Thunderstorms and Rain
1:35 PM 64.4 °F 60.8 °F 88% 30.02 in 5.0 mi WNW 4.6 mph - 0.05 in Thunderstorm Scattered Clouds
1:55 PM 64.4 °F 60.8 °F 88% 30.02 in 4.0 mi WNW 8.1 mph - 0.06 in Rain Light Rain
2:15 PM 64.4 °F 60.8 °F 88% 30.00 in 2.0 mi NW 4.6 mph - 0.06 in Rain , Thunderstorm Thunderstorms and Rain
2:35 PM 62.6 °F 60.8 °F 94% 30.00 in 2.5 mi West 4.6 mph - 0.12 in Rain , Thunderstorm Rain
2:55 PM 62.6 °F 59.0 °F 88% 30.01 in 1.5 mi SSW 6.9 mph - 0.33 in Rain , Thunderstorm Heavy Thunderstorms and Rain
3:15 PM 62.6 °F 59.0 °F 88% 29.99 in 5.0 mi SSW 4.6 mph - 0.03 in Rain , Thunderstorm Rain
3:35 PM 60.8 °F 57.2 °F 88% 29.96 in 7.0 mi ESE 6.9 mph - 0.08 in Rain Light Rain
3:55 PM 62.6 °F 59.0 °F 88% 29.93 in 10.0 mi ESE 5.8 mph - 0.08 in   Scattered Clouds
4:15 PM 62.6 °F 59.0 °F 88% 29.91 in 10.0 mi SE 11.5 mph - 0.01 in Rain Rain
4:35 PM 64.4 °F 59.0 °F 83% 29.86 in 10.0 mi ESE 16.1 mph - 0.03 in Rain Light Rain
4:55 PM 68.0 °F 60.8 °F 78% 29.90 in 10.0 mi North 6.9 mph 20.7 mph 0.03 in   Scattered Clouds
5:15 PM 69.8 °F 55.4 °F 60% 29.90 in 10.0 mi Calm Calm - N/A   Clear
5:35 PM 69.8 °F 59.0 °F 68% 29.90 in 10.0 mi ENE 4.6 mph - N/A   Clear
5:55 PM 69.8 °F 59.0 °F 68% 29.89 in 10.0 mi NNE 3.5 mph - N/A   Clear
6:15 PM 69.8 °F 59.0 °F 68% 29.90 in 10.0 mi East 3.5 mph - N/A   Clear
6:35 PM 68.0 °F 59.0 °F 73% 29.91 in 10.0 mi East 3.5 mph - N/A   Clear
6:55 PM 68.0 °F 59.0 °F 73% 29.91 in 10.0 mi East 4.6 mph - N/A   Clear
7:15 PM 68.0 °F 60.8 °F 78% 29.92 in 10.0 mi East 3.5 mph - N/A   Scattered Clouds
7:35 PM 66.2 °F 59.0 °F 78% 29.92 in 10.0 mi NE 4.6 mph - N/A   Mostly Cloudy
7:55 PM 66.2 °F 59.0 °F 78% 29.92 in 10.0 mi ENE 4.6 mph - N/A   Mostly Cloudy
8:15 PM 66.2 °F 59.0 °F 78% 29.92 in 10.0 mi North 3.5 mph - N/A   Overcast
8:35 PM 64.4 °F 59.0 °F 83% 29.94 in 10.0 mi North 6.9 mph - N/A   Overcast
8:55 PM 64.4 °F 59.0 °F 83% 29.93 in 10.0 mi North 6.9 mph - N/A   Overcast
9:15 PM 64.4 °F 59.0 °F 83% 29.93 in 10.0 mi NNE 8.1 mph - N/A   Overcast
9:35 PM 64.4 °F 59.0 °F 83% 29.93 in 10.0 mi NNE 3.5 mph - N/A   Mostly Cloudy
9:55 PM 64.4 °F 59.0 °F 83% 29.93 in 10.0 mi NNE 8.1 mph - N/A   Mostly Cloudy
10:15 PM 64.4 °F 59.0 °F 83% 29.93 in 10.0 mi NE 10.4 mph 16.1 mph N/A   Overcast
10:35 PM 64.4 °F 59.0 °F 83% 29.94 in 10.0 mi NE 16.1 mph - N/A   Overcast
11:15 PM 59.0 °F 51.8 °F 77% 29.97 in 10.0 mi NE 20.7 mph 29.9 mph N/A   Overcast
11:35 PM 55.4 °F 48.2 °F 77% 29.95 in 10.0 mi NE 24.2 mph 31.1 mph N/A   Overcast
11:55 PM 55.4 °F 46.4 °F 72% 29.94 in 10.0 mi NE 21.9 mph 31.1 mph N/A   Overcast